Location: Wildcat Hills Observatory
(41.6350°N, 103.6812°W)
Time: 23:34:23
(UTC-07:00)

Daily predictions for brighter satellites

Satellite Brightness Start Highest point End
(mag) Time Altitude Azimuth Time Altitude Azimuth Time Altitude Azimuth
NOSS 3-2 (C) 4.4 16:50:42 10° WSW 16:56:26 45° NW 17:02:48 10° NNE
CZ-4C R/B 4.3 16:52:35 10° NNW 16:56:40 16° NNE 17:01:02 10° ENE
Cosmos 1802 Rocket 4.2 16:52:16 10° S 16:58:26 80° W 17:04:36 10° N
Cosmos 2082 Rocket 3.7 16:56:14 10° N 16:59:46 16° NE 17:03:17 10° E
Cosmos 1862 Rocket 3.9 16:58:31 10° SSE 17:02:42 45° E 17:06:57 10° NNE
CSL-04 Rocket 3.6 16:59:58 10° SSE 17:05:13 72° ENE 17:10:33 10° N
Cosmos 1346 3.6 17:07:39 10° SSW 17:09:50 43° WNW 17:12:03 10° N
Cosmos 1340 2.6 17:06:15 10° S 17:10:01 87° E 17:13:49 10° N
Meteor 2-10 Rocket 4.0 17:09:56 10° SSW 17:15:04 66° WNW 17:20:28 10° N
Cosmos 1816 Rocket 4.4 17:09:54 10° N 17:16:01 67° E 17:22:07 10° SSE
Cosmos 1437 2.7 17:13:48 10° S 17:16:55 59° E 17:20:03 10° NNE
Cosmos 371 Rocket 3.9 17:13:30 10° NNW 17:18:16 63° WSW 17:23:00 10° S
Cosmos 1461 4.1 17:13:48 10° NW 17:18:23 55° WSW 17:23:00 10° SSE
Cosmos 1725 Rocket 4.1 17:16:23 10° S 17:22:41 86° W 17:28:59 10° N
ERBS 2.4 17:19:30 10° NW 17:22:50 53° NE 17:26:11 10° ESE
Cosmos 304 Rocket 4.0 17:18:33 10° N 17:23:13 48° ENE 17:27:51 10° SE
ERS-2 2.8 17:21:33 10° SE 17:24:53 34° ENE 17:28:15 10° N
Okean 1-7 4.3 17:22:39 10° SE 17:25:55 21° E 17:29:04 11° NE
CENTAUR R/B 2.9 17:20:21 10° SW 17:26:21 67° NW 17:33:15 10° NNE
Cosmos 468 Rocket 4.1 17:22:11 10° NNW 17:27:24 84° WSW 17:32:31 10° SSE
CZ-2C R/B 3.7 17:25:20 10° NNE 17:29:47 64° ESE 17:34:17 10° S
Meteor 1-14 Rocket 4.2 17:24:42 10° N 17:30:21 59° ENE 17:35:50 10° SSE
COSMOS 2406 3.8 17:25:56 10° NNW 17:31:37 63° WSW 17:37:14 10° S
Cosmos 1844 Rocket 3.5 17:27:24 10° SW 17:32:54 52° WNW 17:38:24 10° NNE
BREEZE-M DEB (TANK) 3.4 17:31:23 10° NW 17:33:08 19° NNE 17:34:21 16° NE
IRS-1A Rocket 4.3 17:27:23 10° SSE 17:33:11 72° ENE 17:38:54 10° N
Cosmos 1782 Rocket 4.4 17:29:58 10° NNE 17:33:41 27° ENE 17:37:24 10° SE
Tsikada Rocket 4.2 17:31:28 10° N 17:37:36 74° W 17:43:45 10° S
COSMOS 2455 2.9 17:32:05 10° SSW 17:38:06 82° WNW 17:44:10 10° NNE
COSMO-SKYMED 1 3.0 17:34:10 10° NNE 17:38:18 42° E 17:42:24 10° S
YAOGAN 1 2.5 17:35:43 10° SSE 17:40:00 68° ENE 17:44:19 10° N
Timation 1 Rocket 4.3 17:36:21 10° SSW 17:42:21 88° ESE 17:48:24 10° NNE
CZ-4 R/B 1.4 17:39:04 10° S 17:42:56 76° WSW 17:46:48 10° NNW
USA 116 4.0 17:42:23 10° NNE 17:47:01 84° WNW 17:51:04 10° SSW
Cosmos 2221 Rocket 4.2 17:44:12 10° SSE 17:48:08 32° E 17:50:41 18° NE
Cosmos 1763 Rocket 3.4 17:43:52 10° NNW 17:49:07 89° ENE 17:54:15 10° SSE
Meteor 1-26 Rocket 4.4 17:47:01 10° SSW 17:52:37 72° W 17:58:09 10° N
BREEZE-M DEB (TANK) 4.0 17:50:59 10° WNW 17:53:05 29° N 17:54:12 22° NNE
FENGYUN 3A 3.8 17:50:04 10° SE 17:55:14 48° ENE 18:00:25 10° N
ALOS 2.5 17:51:25 10° SE 17:55:52 47° ENE 18:00:22 10° N
SL-27 R/B 2.4 17:53:56 10° N 17:57:11 48° ENE 17:58:54 24° SE
Cosmos 2297 4.2 17:52:45 10° S 17:57:59 39° ESE 18:00:47 24° NE
Cosmos 1814 Rocket 4.4 17:52:54 10° NNW 17:58:15 69° WSW 18:03:33 10° S
MOS 1 4.2 17:53:50 10° SSE 17:59:31 77° ENE 18:05:14 10° NNW
Cosmos 1833 Rocket 3.0 17:55:18 10° NNW 18:00:40 43° ENE 18:05:01 15° SE
Cosmos 1703 Rocket 3.5 17:57:27 10° S 18:01:55 75° E 18:06:23 10° NNE
Cosmos 1503 Rocket 4.2 17:59:25 10° S 18:04:29 48° ESE 18:07:13 25° NE
Cosmos 2278 Rocket 2.3 17:59:10 10° SSW 18:04:49 78° WNW 18:10:32 10° NNE
Cosmos 1633 2.4 18:01:39 10° N 18:05:18 65° E 18:08:57 10° SSE
SKYMED 3 4.5 18:03:57 10° NNE 18:08:19 89° WNW 18:12:40 10° SSW
Okean 2 Rocket 3.4 18:05:43 10° N 18:10:03 43° ENE 18:14:22 10° SSE
DMSP B5D1-3 4.4 18:11:37 11° NNE 18:16:30 65° ESE 18:21:36 10° S
Cosmos 1464 Rocket 3.8 18:10:51 10° S 18:16:55 69° E 18:23:02 10° NNE
Cosmos 1606 2.7 18:14:05 10° S 18:17:52 79° W 18:20:19 21° N
Cosmos 836 Rocket 4.4 18:14:09 10° NNW 18:19:21 62° ENE 18:24:14 12° SSE
EO 1 Del DPAF 3.6 18:16:55 13° N 18:20:15 62° WNW 18:24:01 10° SSW
Cosmos 540 Rocket 3.3 18:16:10 10° NNW 18:21:20 67° ENE 18:26:13 11° SSE
Cosmos 841 Rocket 4.0 18:17:37 10° NNW 18:22:50 62° WSW 18:28:00 10° S
BREEZE-M R/B 2.6 18:21:15 10° WNW 18:24:11 83° SSW 18:24:58 55° SE
Cosmos 1782 3.1 18:22:17 10° SSW 18:26:17 65° W 18:29:16 17° N
SKYMED 2 4.2 18:22:05 10° N 18:26:21 56° WNW 18:30:36 10° SSW
USA 234 3.2 18:24:09 28° NE 18:27:53 85° NW 18:34:26 10° SW
Meteor 2-6 Rocket 4.0 18:26:44 10° S 18:32:08 87° ESE 18:37:43 10° N
SPOT 3 Rocket 4.0 18:30:35 10° S 18:35:45 62° WSW 18:40:56 10° NNW
Lacrosse 5 4.0 18:38:35 10° NW 18:41:24 15° N 18:42:16 14° N
Cosmos 1354 Rocket 4.0 18:36:31 10° SSW 18:41:48 80° WNW 18:44:00 36° NNE
Cosmos 2082 Rocket 2.1 18:38:55 10° NNW 18:44:39 87° WSW 18:47:57 26° SSE
CZ-4C R/B 3.1 18:40:09 10° NNW 18:46:58 48° NE 18:47:31 47° ENE
Cosmos 405 Rocket 4.2 18:43:24 10° SSW 18:45:18 28° SSW 18:45:18 28° SSW
FengYun 1-2 T 4.0 18:45:53 27° SSE 18:48:59 79° ENE 18:54:34 10° N
Cosmos 44 Rocket 4.1 18:45:53 10° NNW 18:49:10 40° N 18:49:10 40° N
Meteor 1-27 Rocket 3.7 18:50:21 10° S 18:56:14 88° E 18:58:11 45° N
CZ-3A R/B 4.1 18:47:22 10° NW 18:59:34 62° SW 19:03:13 24° SSE
Meteor 2-20 Rocket 4.2 18:55:22 10° N 19:01:31 81° E 19:01:52 77° SE
Thor Agena Rocket 4.0 19:11:18 53° SW 19:11:18 53° SW 19:15:13 10° SSW
Nadezhda 4 Rocket 4.5 19:27:05 10° NNW 19:33:02 55° W 19:38:57 10° SSW
CZ-4C R/B 4.3 20:28:46 10° NW 20:32:45 32° WNW 20:32:45 32° WNW
